Location: Cerda�ola
(41.4919°N, 2.1403°E)
Time: 02:40:40
(UTC+00:00)

STARLINK-1236 - Pass Details

Date: 29 March 2020
Orbit: 549 x 550 km, 53.0° (Epoch: 31 May)

Event Time Altitude Azimuth Distance (km) Brightness Sun altitude
Rises 18:38:46 0° 226° (SW) 2,710 7.7 -5.5°
Reaches altitude 10° 18:41:00 10° 224° (SW) 1,820 6.8 -5.9°
Maximum altitude 18:45:07 75° 140° (SE) 574 3.6 -6.6°
Drops below altitude 10° 18:49:16 10° 55° (NE) 1,831 5.9 -7.4°
Enters shadow 18:51:39 - 54° (NE) 2,782 6.8 -7.8°
